THORAD AGENA D DEB, 42532

Orbit data source: Space-Track

THORAD AGENA D DEB, 42532 is space debris in SSO originally from a launch on Wed, 08 Apr 1970 UTC launched from the Air Force Western Test Range (AFWTR). Debris objects in space refer to the collection of defunct objects orbiting the Earth. Examples of debris include non-operational satellites, rocket bodies, and fragments generated from explosions, collisions, or faulty payload assembly.

Loading next visibility...
Identifier
42532, 1970-025SN
Orbit
SSO
Last TLE update
4 days ago
Origin
Manufacturer
Unknown
Mission
Spacecraft
Bus & Motor
Unknown
Mass
Unknown
Launch date (UTC)
1970-04-08 (55 years ago)
Launch vehicle
Unknown
Launch site
Air Force Western Test Range (AFWTR)
Object type
Payload
Rocket body
Debris
Shape & HBR
Unknown
Radar Cross Section
Small (<0.1 m²)

Expand to show TLE details & history

TLE from 4 days ago
0 THORAD AGENA D DEB
1 42532U 70025SN  25178.57070795  .00001199  00000-0  83146-3 0  9998
2 42532  99.9367  83.5131 0001404  79.2482 280.8838 14.01228882265773
Epoch: 2025-06-27T13:41Z
TLE epoch observation values (Epoch: 2025-06-27T13:41:49.166Z)
Latitude
-0.00004°
Longitude
-37.86342°
Altitude
892.197 km
Speed
7.406 km/s
True Right ascension
05h 34m 03s
True Declination
0° 00' 00"
Sunlit
Object was in daylight at epoch
Visualization orbit readout
Latitude
22.86348°
Longitude
-38.03594°
Altitude
891.513 km
Speed
7.409 km/s
Apparent Right ascension
05h 58m 31s
Apparent Declination
-6° 15' 30"
Sunlit
Object is in daylight
Visualization observer readout
Local Sidereal Time
18:32:59
Azimuth
15.234° NNE
Elevation
-55.462°
Doppler factor
1
Orbital elements
Apogee altitude
887.809 km
Perigee altitude
885.769 km
Semi-major axis
7,264.926 km
Eccentricity
0.00014
Inclination
99.9367°
RAAN
83.5131°
Arg. of periapsis
79.2482°
True anomaly
Unknown
Mean anomaly
280.8838°
Eccentric anomaly
Unknown
Mean motion
3.50507 °/min
Orbital period
102.71 mins
BSTAR
0.00083146
Loading maneuver chart data...
Loading SW <> Apogee altitude chart data...

THORAD AGENA D DEB Visibility forecast

Observer location: undefined°, undefined°

Span
Click to sort rows by Start time (UTC) header in descending order
Start Az.
Max El. time (UTC)
Max El. Az.
Max El.
End time (UTC)
End Az.
9 mins2025-07-01 07:23:07.406Z356.667° N2025-07-01 07:27:07.406Z303.53° NW32.67°2025-07-01 07:32:07.406Z227.779° WSW
9 mins2025-07-01 17:13:07.406Z145.533° SSE2025-07-01 17:17:07.406Z83.72° E40.651°2025-07-01 17:22:07.406Z354.343° N
5 mins2025-07-01 18:57:07.406Z241.398° WSW2025-07-01 18:59:07.406Z266.842° W17.435°2025-07-01 19:02:07.406Z302.425° NW
8 mins2025-07-02 05:42:07.406Z48.558° ENE2025-07-02 05:45:07.406Z87.904° E24.216°2025-07-02 05:50:07.406Z152.097° SSE
|